AWST,Max TemperatureF,Mean TemperatureF,Min TemperatureF,Max Dew PointF,MeanDew PointF,Min DewpointF,Max Humidity, Mean Humidity, Min Humidity, Max Sea Level PressureIn, Mean Sea Level PressureIn, Min Sea Level PressureIn, Max VisibilityMiles, Mean VisibilityMiles, Min VisibilityMiles, Max Wind SpeedMPH, Mean Wind SpeedMPH, Max Gust SpeedMPH,PrecipitationIn, CloudCover, Events, WindDirDegrees
2011-11-1,82,74,66,64,63,59,94,76,48,30.01,29.92,29.86,,,,17,12,,0.00,,,91
2011-11-2,91,80,68,64,62,57,88,58,31,29.92,29.86,29.77,,,,15,8,,0.00,,,115
2011-11-3,93,80,68,61,58,54,78,47,26,29.89,29.81,29.71,,,,10,7,,0.00,,,31
2011-11-4,91,81,71,68,59,50,83,51,26,29.83,29.77,29.68,,,,18,9,,0.00,,,292
2011-11-5,95,82,69,59,52,39,68,37,15,29.83,29.78,29.71,,,,12,7,,0.00,,,271
2011-11-6,96,81,66,63,55,41,83,44,15,29.86,29.77,29.71,,,,20,12,29,0.00,,,312
2011-11-7,95,82,68,63,57,54,78,44,25,29.83,29.78,29.71,,,,20,12,29,0.00,,,311
2011-11-8,98,83,68,66,56,48,88,44,18,29.86,29.79,29.71,,,,17,11,30,0.00,,,305
2011-11-9,96,84,73,64,46,41,69,29,15,29.92,29.86,29.80,,,,22,11,,0.00,,,156
2011-11-10,102,88,73,54,49,46,41,27,17,29.98,29.90,29.83,,,,21,12,,0.00,,,131
2011-11-11,102,88,75,61,55,50,50,33,20,29.95,29.90,29.83,,,,14,9,,0.00,,,58
2011-11-12,100,90,80,64,59,52,54,37,21,29.95,29.88,29.80,,,,13,9,,0.00,,,41
2011-11-13,102,90,77,68,63,59,69,46,24,29.89,29.83,29.77,,,,14,7,,0.00,,,342
2011-11-14,96,86,77,68,63,59,65,49,28,29.92,29.85,29.77,,,,30,8,41,0.00,,,130
2011-11-15,100,86,73,64,61,55,69,46,24,29.92,29.84,29.77,,,,12,7,,0.00,,,71
2011-11-16,100,88,77,66,62,55,65,43,24,29.89,29.83,29.74,,,,17,8,28,0.00,,,92
2011-11-17,100,88,77,68,62,57,69,43,24,29.86,29.80,29.71,,,,17,8,,0.00,,,278
2011-11-18,102,90,78,64,60,55,57,37,21,29.86,29.76,29.68,,,,20,12,30,0.00,,,288
2011-11-19,104,92,78,64,61,57,61,42,23,29.80,29.73,29.65,,,,21,11,33,0.00,,,264
2011-11-20,96,80,64,68,64,59,94,58,28,29.98,29.78,29.65,,,,28,14,39,0.00,,,113
2011-11-21,87,74,62,64,61,59,88,63,40,29.86,29.80,29.74,,,,25,17,33,0.00,,,147
2011-11-22,86,76,66,59,54,50,78,49,29,29.95,29.87,29.80,,,,23,17,31,0.00,,,135
2011-11-23,87,76,66,55,50,45,64,41,22,29.98,29.93,29.86,,,,25,15,37,0.00,,,125
2011-11-24,96,82,69,52,48,46,46,31,18,29.98,29.92,29.86,,,,24,14,31,0.00,,,109
2011-11-25,98,84,69,48,42,30,43,26,10,30.01,29.93,29.86,,,,15,10,,0.00,,,118
2011-11-26,100,84,69,46,36,27,38,19,8,29.92,29.87,29.80,,,,17,9,20,0.00,,,107
2011-11-27,104,86,69,50,41,32,49,22,9,29.83,29.77,29.71,,,,10,5,22,0.00,,,359
2011-11-28,104,90,75,61,52,48,51,28,15,29.74,29.70,29.62,,,,23,11,36,0.00,,,317
2011-11-29,104,90,75,54,44,32,47,25,9,29.80,29.76,29.71,,,,14,8,20,0.00,,,293
2011-11-30,104,90,75,48,45,41,34,21,12,29.86,29.79,29.74,,,,16,7,,0.00,,,125